DW3201 Weather Reports


Display with metric or nautical units.
time (UTC)temp
F
wind
direction
speed
MPH
gust
MPH
rain 1hr
in
rain 24hr
in
rain mn
in
humidity
%
barometer
mb
20260508221601 67 298 5.0 14.0 0.00 0.00 0.00 24 1004.6
20260508220059 67 276 3.0 10.0 0.00 0.00 0.00 25 1004.7
20260508214600 67 290 2.0 9.0 0.00 0.00 0.00 26 1004.7
20260508213113 67 0 5.0 9.0 0.00 0.00 0.00 23 1004.8
20260508211600 67 271 3.0 7.0 0.00 0.00 0.00 24 1004.9
20260508210057 66 249 6.0 13.0 0.00 0.00 0.00 23 1005.1
20260508204603 67 262 9.0 18.0 0.00 0.00 0.00 22 1005.4
20260508203101 67 245 5.0 9.0 0.00 0.00 0.00 24 1005.6
20260508201613 67 225 8.0 12.0 0.00 0.00 0.00 21 1005.7
20260508200109 67 271 2.0 12.0 0.00 0.00 0.00 20 1005.9
20260508194600 67 16 3.0 6.0 0.00 0.00 0.00 23 1006.1
20260508193106 66 221 2.0 13.0 0.00 0.00 0.00 22 1006.4
20260508191555 67 214 2.0 8.0 0.00 0.00 0.00 23 1006.5
20260508190057 65 233 3.0 7.0 0.00 0.00 0.00 24 1006.8
20260508184604 67 219 1.0 5.0 0.00 0.00 0.00 26 1006.9
20260508183105 66 72 3.0 10.0 0.00 0.00 0.00 21 1007.1
20260508181554 67 233 0.0 6.0 0.00 0.00 0.00 25 1007.3
20260508180059 66 89 0.0 4.0 0.00 0.00 0.00 23 1007.4
20260508174605 65 271 1.0 8.0 0.00 0.00 0.00 28 1007.6
20260508173054 64 63 3.0 7.0 0.00 0.00 0.00 23 1007.9
20260508171558 64 235 4.0 8.0 0.00 0.00 0.00 22 1008.2
20260508170056 63 228 3.0 6.0 0.00 0.00 0.00 24 1008.5
20260508164558 64 263 0.0 3.0 0.00 0.00 0.00 26 1008.7
20260508163114 62 251 3.0 7.0 0.00 0.00 0.00 26 1008.9
20260508161556 62 231 2.0 6.0 0.00 0.00 0.00 25 1009.1
20260508160052 62 242 2.0 4.0 0.00 0.00 0.00 25 1009.1
20260508154558 61 248 1.0 7.0 0.00 0.00 0.00 27 1009.5
20260508153057 61 162 1.0 6.0 0.00 0.00 0.00 28 1009.4
20260508151554 62 167 0.0 3.0 0.00 0.00 0.00 29 1009.4
20260508150052 59 118 2.0 5.0 0.00 0.00 0.00 32 1009.5
20260508144551 59 249 0.0 3.0 0.00 0.00 0.00 33 1009.6
20260508143054 58 266 1.0 4.0 0.00 0.00 0.00 41 1009.4
20260508141555 56 99 1.0 6.0 0.00 0.00 0.00 51 1009.6
20260508140054 54 88 0.0 3.0 0.00 0.00 0.00 58 1009.7
20260508134551 52 69 1.0 2.0 0.00 0.00 0.00 65 1009.7
20260508133059 50 96 0.0 2.0 0.00 0.00 0.00 74 1010.1
20260508131556 48 243 0.0 2.0 0.00 0.00 0.00 79 1010.1
20260508130107 44 0 0.0 2.0 0.00 0.00 0.00 94 1010.2
20260508124554 41 0 0.0 1.0 0.00 0.00 0.00 95 1010.2
20260508123056 38 0 0.0 0.0 0.00 0.00 0.00 95 1010.2
20260508121551 36 0 0.0 0.0 0.00 0.00 0.00 94 1010.2
20260508120056 34 0 0.0 0.0 0.00 0.00 0.00 94 1010.1
20260508114551 33 0 0.0 0.0 0.00 0.00 0.00 94 1010.0
20260508113107 33 0 0.0 0.0 0.00 0.00 0.00 94 1010.1
20260508111553 32 0 0.0 0.0 0.00 0.00 0.00 94 1010.0
20260508110118 32 0 0.0 0.0 0.00 0.00 0.00 94 1010.0
20260508104557 31 0 0.0 0.0 0.00 0.00 0.00 93 1010.0
20260508103057 32 0 0.0 0.0 0.00 0.00 0.00 94 1010.0
20260508101556 31 0 0.0 0.0 0.00 0.00 0.00 93 1010.0
20260508100055 32 0 0.0 0.0 0.00 0.00 0.00 93 1010.0
20260508094600 31 0 0.0 0.0 0.00 0.00 0.00 93 1010.2
20260508093102 32 0 0.0 0.0 0.00 0.00 0.00 93 1010.2
20260508091557 32 0 0.0 0.0 0.00 0.00 0.00 92 1010.3
20260508090108 33 0 0.0 0.0 0.00 0.00 0.00 93 1010.4
20260508084552 33 0 0.0 1.0 0.00 0.00 0.00 93 1010.5
20260508083055 33 277 0.0 0.0 0.00 0.00 0.00 92 1010.5
20260508081559 33 0 0.0 0.0 0.00 0.00 0.00 92 1010.4
20260508080054 33 0 0.0 0.0 0.00 0.00 0.00 91 1010.5
20260508074555 33 277 1.0 1.0 0.00 0.00 0.00 90 1010.6
20260508073058 34 271 0.0 1.0 0.00 0.00 0.00 92 1010.7
20260508071554 34 277 0.0 1.0 0.00 0.00 0.00 90 1010.8
20260508070054 35 0 0.0 1.0 0.00 0.00 0.00 89 1010.8
20260508064556 35 264 0.0 1.0 0.00 0.00 0.00 87 1011.0
20260508063055 35 0 0.0 1.0 0.00 0.00 0.00 87 1011.1
20260508061606 35 0 0.0 1.0 0.00 0.00 0.00 86 1011.3
20260508060057 36 263 0.0 1.0 0.00 0.00 0.00 86 1011.5
20260508054635 36 0 0.0 1.0 0.00 0.00 0.00 84 1011.3
20260508053052 37 0 0.0 1.0 0.00 0.00 0.00 83 1011.4
20260508051552 37 0 0.0 1.0 0.00 0.00 0.00 83 1011.4
20260508050057 37 0 0.0 1.0 0.00 0.00 0.00 83 1011.3
20260508044559 38 0 0.0 1.0 0.00 0.00 0.00 81 1011.2
20260508043052 38 0 0.0 0.0 0.00 0.00 0.00 80 1011.0
20260508041559 39 0 0.0 0.0 0.00 0.00 0.00 80 1010.9
20260508040058 40 0 0.0 0.0 0.00 0.00 0.00 77 1010.8
20260508034600 41 0 0.0 1.0 0.00 0.00 0.00 75 1010.6
20260508033052 42 45 2.0 3.0 0.00 0.00 0.00 76 1010.7
20260508031600 42 112 1.0 4.0 0.00 0.00 0.00 75 1010.4
20260508030112 42 75 1.0 5.0 0.00 0.00 0.00 73 1010.3
20260508024605 43 97 3.0 6.0 0.00 0.00 0.00 71 1010.3
20260508023055 44 94 4.0 7.0 0.00 0.00 0.00 71 1010.3
20260508021614 45 83 3.0 8.0 0.00 0.00 0.00 71 1010.1
20260508020054 46 103 4.0 9.0 0.00 0.00 0.00 71 1009.9
20260508014602 47 72 4.0 7.0 0.00 0.00 0.00 68 1009.7
20260508013106 47 49 2.0 5.0 0.00 0.00 0.00 67 1009.4
20260508011601 48 75 5.0 9.0 0.00 0.00 0.00 65 1009.3
20260508010057 49 68 4.0 6.0 0.00 0.00 0.00 66 1009.2
20260508004558 50 69 3.0 7.0 0.00 0.00 0.00 64 1008.9
20260508003103 50 63 7.0 11.0 0.00 0.00 0.00 64 1008.6
20260508001554 51 88 8.0 11.0 0.00 0.00 0.00 64 1008.6
20260508000053 51 87 9.0 16.0 0.00 0.00 0.00 64 1008.6
20260507234553 52 103 7.0 10.0 0.00 0.00 0.00 60 1008.4
20260507233056 52 68 7.0 9.0 0.00 0.00 0.00 60 1008.4
20260507231557 52 43 5.0 11.0 0.00 0.00 0.00 57 1008.5
20260507230049 52 71 4.0 6.0 0.00 0.00 0.00 56 1008.3
20260507224601 51 86 6.0 11.0 0.00 0.00 0.00 57 1008.4
20260507223052 51 86 5.0 11.0 0.00 0.00 0.00 55 1008.4